Location: Ottawa
(45.4167°N, 75.7000°W)
Time: 14:52:31
(UTC-04:00)

N. Korean satellite - Pass Details

Date: 08 October 2017
Orbit: 459 x 517 km, 97.2° (Epoch: 23 October)

Event Time Altitude Azimuth Distance (km) Brightness Sun altitude
Rises 20:10:58 0° 211° (SSW) 2,573 10.5 -18.6°
Reaches altitude 10° 20:14:01 10° 240° (WSW) 1,684 10.0 -19.1°
Maximum altitude 20:15:47 13° 269° (W) 1,494 10.1 -19.4°
Drops below altitude 10° 20:17:32 10° 299° (WNW) 1,674 10.4 -19.7°
Sets 20:20:34 0° 327° (NNW) 2,547 10.9 -20.2°
